AAL696 KORD-KJFK

Flight info

Callsign AAL696
Flight time 1h 39m
Altitude 35000
Route DUFEE LOGGR HAAKK DOXXY SOSIC JHW Q476 WLKES PUCKY1
Aircraft B738/M-SDE2E3FGHIRWXY/LB1

Departure

Time 2026-04-30 06:17
Airport Chicago O'Hare International Airport (KORD)

Arrival

Time 2026-04-30 07:56
Airport John F. Kennedy International Airport (KJFK)
Time Latitude Longitude Altitude Speed Heading
2026-04-30 06:02 41.97568 -87.89993 662 ft 0 kts 205°
2026-04-30 06:06 41.97576 -87.89988 662 ft 2 kts 205°
2026-04-30 06:07 41.97590 -87.89979 662 ft 2 kts 205°
2026-04-30 06:07 41.97605 -87.89970 660 ft 2 kts 205°
2026-04-30 06:07 41.97620 -87.89960 659 ft 2 kts 205°
2026-04-30 06:07 41.97627 -87.89956 661 ft 0 kts 205°
2026-04-30 06:10 41.97611 -87.89941 661 ft 7 kts 115°
2026-04-30 06:10 41.97593 -87.89871 661 ft 8 kts 105°
2026-04-30 06:11 41.97575 -87.89796 658 ft 9 kts 107°
2026-04-30 06:11 41.97556 -87.89720 659 ft 9 kts 110°
2026-04-30 06:11 41.97529 -87.89629 658 ft 12 kts 112°
2026-04-30 06:11 41.97487 -87.89539 658 ft 11 kts 148°
2026-04-30 06:12 41.97411 -87.89540 659 ft 11 kts 197°
2026-04-30 06:12 41.97345 -87.89589 661 ft 11 kts 220°
2026-04-30 06:12 41.97300 -87.89667 661 ft 11 kts 242°
2026-04-30 06:12 41.97260 -87.89764 662 ft 14 kts 241°
2026-04-30 06:13 41.97212 -87.89899 668 ft 19 kts 255°
2026-04-30 06:13 41.97206 -87.90066 667 ft 15 kts 271°
2026-04-30 06:13 41.97134 -87.90135 666 ft 15 kts 182°
2026-04-30 06:13 41.97047 -87.90168 667 ft 13 kts 246°
2026-04-30 06:14 41.97043 -87.90331 665 ft 26 kts 271°
2026-04-30 06:14 41.97043 -87.90589 665 ft 27 kts 269°
2026-04-30 06:14 41.97041 -87.90832 666 ft 25 kts 271°
2026-04-30 06:14 41.97043 -87.91060 671 ft 24 kts 270°
2026-04-30 06:15 41.97042 -87.91275 674 ft 23 kts 269°
2026-04-30 06:15 41.97041 -87.91483 677 ft 22 kts 269°
2026-04-30 06:15 41.97040 -87.91683 678 ft 21 kts 270°
2026-04-30 06:15 41.97040 -87.91882 675 ft 21 kts 270°
2026-04-30 06:16 41.97039 -87.92012 675 ft 7 kts 265°
2026-04-30 06:16 41.97013 -87.92076 675 ft 12 kts 213°
2026-04-30 06:16 41.96907 -87.92060 673 ft 14 kts 129°
2026-04-30 06:16 41.96903 -87.91925 675 ft 20 kts 90°
2026-04-30 06:17 41.96902 -87.91434 677 ft 93 kts 90°
2026-04-30 06:17 41.96904 -87.90206 672 ft 166 kts 90°
2026-04-30 06:17 41.96909 -87.88561 1420 ft 175 kts 89°
2026-04-30 06:17 41.96806 -87.86994 2638 ft 168 kts 98°
2026-04-30 06:18 41.96340 -87.85419 3094 ft 197 kts 110°
2026-04-30 06:18 41.95727 -87.83620 3386 ft 225 kts 110°
2026-04-30 06:18 41.95047 -87.81610 3648 ft 246 kts 111°
2026-04-30 06:18 41.94321 -87.79458 4132 ft 257 kts 111°
2026-04-30 06:19 41.93612 -87.77238 4785 ft 261 kts 107°
2026-04-30 06:19 41.92976 -87.74914 5532 ft 266 kts 106°
2026-04-30 06:19 41.92366 -87.72572 6458 ft 266 kts 100°
2026-04-30 06:19 41.92360 -87.70104 6957 ft 270 kts 69°
2026-04-30 06:20 41.93014 -87.67708 7564 ft 277 kts 60°
2026-04-30 06:20 41.93810 -87.65321 8329 ft 282 kts 59°
2026-04-30 06:20 41.94624 -87.62896 9138 ft 287 kts 60°
2026-04-30 06:20 41.95420 -87.60446 9929 ft 293 kts 61°
2026-04-30 06:21 41.96224 -87.57892 10527 ft 305 kts 62°
2026-04-30 06:21 41.97071 -87.55150 10716 ft 330 kts 63°
2026-04-30 06:21 41.97958 -87.52206 11068 ft 347 kts 64°
2026-04-30 06:21 41.98860 -87.49149 11700 ft 355 kts 64°
2026-04-30 06:22 41.99769 -87.46035 12431 ft 359 kts 64°
2026-04-30 06:22 42.00683 -87.42881 13148 ft 365 kts 64°
2026-04-30 06:22 42.01610 -87.39676 13846 ft 371 kts 64°
2026-04-30 06:22 42.02552 -87.36418 14458 ft 376 kts 64°
2026-04-30 06:23 42.03503 -87.33121 15080 ft 381 kts 64°
2026-04-30 06:23 42.04468 -87.29774 15701 ft 386 kts 64°
2026-04-30 06:23 42.05446 -87.26378 16315 ft 391 kts 64°
2026-04-30 06:23 42.06435 -87.22938 16921 ft 396 kts 64°
2026-04-30 06:24 42.07422 -87.19503 17523 ft 401 kts 64°
2026-04-30 06:24 42.08433 -87.15978 18120 ft 406 kts 65°
2026-04-30 06:24 42.09457 -87.12407 18665 ft 411 kts 65°
2026-04-30 06:24 42.10483 -87.08790 19210 ft 416 kts 67°
2026-04-30 06:25 42.11240 -87.04993 19727 ft 424 kts 77°
2026-04-30 06:25 42.11528 -87.01013 20261 ft 430 kts 85°
2026-04-30 06:25 42.11667 -86.96967 20755 ft 435 kts 86°
2026-04-30 06:25 42.11780 -86.92876 21255 ft 439 kts 86°
2026-04-30 06:26 42.11893 -86.88737 21749 ft 443 kts 86°
2026-04-30 06:26 42.12018 -86.84567 22234 ft 447 kts 86°
2026-04-30 06:26 42.12153 -86.80364 22713 ft 451 kts 85°
2026-04-30 06:26 42.12297 -86.76124 23181 ft 455 kts 85°
2026-04-30 06:27 42.12445 -86.71835 23635 ft 459 kts 85°
2026-04-30 06:27 42.12594 -86.67571 24021 ft 463 kts 86°
2026-04-30 06:27 42.12744 -86.63225 24429 ft 465 kts 86°
2026-04-30 06:27 42.12893 -86.58851 24839 ft 468 kts 86°
2026-04-30 06:28 42.13041 -86.54451 25235 ft 471 kts 86°
2026-04-30 06:28 42.13187 -86.50036 25614 ft 474 kts 86°
2026-04-30 06:28 42.13333 -86.45590 25986 ft 477 kts 86°
2026-04-30 06:28 42.13478 -86.41115 26351 ft 479 kts 86°
2026-04-30 06:29 42.13621 -86.36607 26724 ft 482 kts 86°
2026-04-30 06:29 42.13764 -86.32080 27082 ft 485 kts 86°
2026-04-30 06:29 42.13858 -86.29071 27313 ft 487 kts 86°
2026-04-30 06:29 42.14000 -86.24494 27655 ft 489 kts 86°
2026-04-30 06:30 42.14185 -86.18417 28097 ft 493 kts 86°
2026-04-30 06:30 42.14324 -86.13783 28432 ft 496 kts 86°
2026-04-30 06:30 42.14415 -86.10699 28650 ft 497 kts 87°
2026-04-30 06:30 42.14479 -86.06017 28969 ft 500 kts 89°
2026-04-30 06:31 42.14453 -86.01322 29277 ft 502 kts 90°
2026-04-30 06:31 42.14390 -85.96594 29580 ft 505 kts 90°
2026-04-30 06:31 42.14320 -85.91842 29877 ft 507 kts 90°
2026-04-30 06:31 42.14257 -85.87082 30151 ft 509 kts 90°
2026-04-30 06:32 42.14203 -85.82305 30382 ft 512 kts 90°
2026-04-30 06:32 42.14157 -85.77482 30611 ft 514 kts 90°
2026-04-30 06:32 42.14115 -85.72728 30882 ft 514 kts 90°
2026-04-30 06:32 42.14074 -85.67915 31219 ft 513 kts 90°
2026-04-30 06:33 42.14030 -85.63116 31572 ft 512 kts 90°
2026-04-30 06:33 42.13985 -85.58312 31887 ft 512 kts 90°
2026-04-30 06:33 42.13936 -85.53526 32181 ft 512 kts 90°
2026-04-30 06:33 42.13885 -85.48725 32461 ft 512 kts 90°
2026-04-30 06:34 42.13832 -85.43929 32767 ft 511 kts 90°
2026-04-30 06:34 42.13776 -85.39140 33080 ft 511 kts 91°
2026-04-30 06:34 42.13719 -85.34352 33373 ft 511 kts 91°
2026-04-30 06:34 42.13660 -85.29563 33656 ft 510 kts 91°
2026-04-30 06:35 42.13598 -85.24783 33940 ft 510 kts 91°
2026-04-30 06:35 42.13535 -85.20010 34187 ft 510 kts 91°
2026-04-30 06:35 42.13471 -85.15242 34443 ft 509 kts 91°
2026-04-30 06:35 42.13405 -85.10484 34683 ft 508 kts 91°
2026-04-30 06:36 42.13337 -85.05778 34897 ft 508 kts 91°
2026-04-30 06:36 42.13266 -85.01023 35031 ft 509 kts 91°
2026-04-30 06:36 42.13191 -84.96246 35020 ft 511 kts 91°
2026-04-30 06:37 42.13031 -84.86680 35025 ft 508 kts 91°
2026-04-30 06:37 42.12865 -84.77183 35025 ft 506 kts 91°
2026-04-30 06:38 42.12694 -84.67724 35017 ft 504 kts 91°
2026-04-30 06:38 42.12517 -84.58364 35015 ft 503 kts 91°
2026-04-30 06:39 42.12340 -84.48939 35016 ft 503 kts 90°
2026-04-30 06:39 42.13029 -84.39583 35029 ft 502 kts 80°
2026-04-30 06:40 42.14156 -84.30278 35014 ft 503 kts 79°
2026-04-30 06:40 42.15260 -84.20951 35020 ft 505 kts 80°
2026-04-30 06:41 42.16309 -84.11584 35009 ft 506 kts 81°
2026-04-30 06:41 42.17334 -84.02188 35003 ft 507 kts 81°
2026-04-30 06:42 42.18348 -83.92833 34994 ft 507 kts 81°
2026-04-30 06:42 42.19364 -83.83412 34987 ft 508 kts 81°
2026-04-30 06:43 42.20374 -83.73985 34994 ft 507 kts 81°
2026-04-30 06:43 42.21374 -83.64567 34987 ft 506 kts 81°
2026-04-30 06:44 42.22365 -83.55175 34998 ft 505 kts 81°
2026-04-30 06:44 42.23163 -83.45813 34996 ft 504 kts 88°
2026-04-30 06:45 42.23265 -83.36352 34992 ft 504 kts 90°
2026-04-30 06:45 42.23242 -83.26905 35000 ft 503 kts 90°
2026-04-30 06:46 42.23258 -83.17467 34992 ft 503 kts 90°
2026-04-30 06:46 42.23309 -83.08044 34993 ft 502 kts 90°
2026-04-30 06:47 42.23367 -82.98603 34999 ft 503 kts 90°
2026-04-30 06:47 42.23416 -82.89234 34987 ft 503 kts 90°
2026-04-30 06:48 42.23455 -82.79788 34997 ft 503 kts 90°
2026-04-30 06:48 42.23485 -82.70338 34984 ft 504 kts 90°
2026-04-30 06:49 42.23507 -82.60878 34986 ft 504 kts 90°
2026-04-30 06:49 42.23521 -82.51411 34970 ft 504 kts 91°
2026-04-30 06:50 42.23528 -82.41943 34965 ft 505 kts 91°
2026-04-30 06:50 42.23527 -82.32457 34958 ft 505 kts 91°
2026-04-30 06:51 42.23518 -82.23047 34948 ft 505 kts 91°
2026-04-30 06:51 42.23501 -82.13572 34951 ft 504 kts 91°
2026-04-30 06:52 42.23477 -82.04114 34955 ft 504 kts 91°
2026-04-30 06:52 42.23445 -81.94657 34949 ft 503 kts 91°
2026-04-30 06:53 42.23405 -81.85207 34955 ft 503 kts 91°
2026-04-30 06:53 42.23358 -81.75778 34951 ft 502 kts 91°
2026-04-30 06:54 42.23302 -81.66344 34953 ft 502 kts 92°
2026-04-30 06:54 42.23239 -81.56920 34948 ft 502 kts 92°
2026-04-30 06:55 42.23169 -81.47513 34948 ft 502 kts 92°
2026-04-30 06:55 42.23091 -81.38163 34943 ft 501 kts 92°
2026-04-30 06:56 42.23005 -81.28747 34942 ft 501 kts 92°
2026-04-30 06:56 42.22911 -81.19341 34941 ft 501 kts 92°
2026-04-30 06:57 42.22810 -81.09921 34940 ft 501 kts 92°
2026-04-30 06:57 42.22701 -81.00509 34940 ft 501 kts 92°
2026-04-30 06:58 42.22584 -80.91099 34932 ft 501 kts 92°
2026-04-30 06:58 42.22461 -80.81738 34933 ft 501 kts 92°
2026-04-30 06:59 42.22328 -80.72319 34926 ft 501 kts 92°
2026-04-30 06:59 42.22189 -80.62916 34919 ft 501 kts 93°
2026-04-30 07:00 42.22042 -80.53565 34909 ft 501 kts 93°
2026-04-30 07:00 42.21888 -80.44180 34905 ft 500 kts 93°
2026-04-30 07:01 42.21725 -80.34800 34903 ft 500 kts 93°
2026-04-30 07:01 42.21556 -80.25436 34902 ft 499 kts 93°
2026-04-30 07:02 42.21379 -80.16073 34905 ft 499 kts 93°
2026-04-30 07:02 42.21195 -80.06784 34915 ft 498 kts 93°
2026-04-30 07:03 42.21003 -79.97441 34898 ft 498 kts 94°
2026-04-30 07:03 42.20804 -79.88101 34908 ft 498 kts 94°
2026-04-30 07:04 42.20597 -79.78782 34894 ft 498 kts 94°
2026-04-30 07:04 42.20382 -79.69427 34885 ft 497 kts 94°
2026-04-30 07:05 42.20048 -79.55505 34891 ft 497 kts 94°
2026-04-30 07:05 42.19815 -79.46171 34886 ft 497 kts 94°
2026-04-30 07:06 42.19575 -79.36869 34887 ft 496 kts 94°
2026-04-30 07:06 42.19328 -79.27564 34883 ft 496 kts 94°
2026-04-30 07:07 42.19076 -79.18330 34890 ft 495 kts 94°
2026-04-30 07:07 42.18277 -79.09164 34880 ft 490 kts 109°
2026-04-30 07:08 42.16126 -79.00482 34880 ft 487 kts 113°
2026-04-30 07:08 42.13877 -78.91875 34890 ft 487 kts 113°
2026-04-30 07:09 42.11667 -78.83248 34889 ft 487 kts 112°
2026-04-30 07:09 42.09498 -78.74663 34877 ft 488 kts 112°
2026-04-30 07:10 42.07311 -78.66006 34871 ft 488 kts 112°
2026-04-30 07:10 42.05118 -78.57364 34871 ft 488 kts 112°
2026-04-30 07:11 42.02917 -78.48729 34866 ft 488 kts 112°
2026-04-30 07:11 42.00709 -78.40102 34872 ft 488 kts 112°
2026-04-30 07:12 41.98493 -78.31477 34876 ft 488 kts 112°
2026-04-30 07:12 41.96270 -78.22852 34864 ft 489 kts 113°
2026-04-30 07:13 41.94037 -78.14219 34855 ft 489 kts 113°
2026-04-30 07:13 41.91813 -78.05652 34855 ft 489 kts 113°
2026-04-30 07:14 41.89568 -77.97034 34855 ft 489 kts 113°
2026-04-30 07:14 41.87316 -77.88417 34859 ft 489 kts 113°
2026-04-30 07:15 41.85060 -77.79804 34857 ft 489 kts 113°
2026-04-30 07:15 41.82806 -77.71193 34861 ft 489 kts 113°
2026-04-30 07:16 41.80548 -77.62593 34849 ft 489 kts 113°
2026-04-30 07:16 41.78283 -77.54002 34852 ft 488 kts 113°
2026-04-30 07:17 41.76010 -77.45478 34850 ft 488 kts 113°
2026-04-30 07:18 41.72567 -77.32636 34835 ft 488 kts 113°
2026-04-30 07:18 41.70271 -77.24093 34839 ft 487 kts 114°
2026-04-30 07:19 41.67969 -77.15558 34834 ft 487 kts 114°
2026-04-30 07:19 41.65664 -77.07042 34833 ft 487 kts 114°
2026-04-30 07:20 41.63353 -76.98524 34821 ft 487 kts 114°
2026-04-30 07:20 41.61041 -76.90026 34822 ft 487 kts 114°
2026-04-30 07:21 41.58736 -76.81582 34820 ft 487 kts 114°
2026-04-30 07:21 41.56408 -76.73085 34818 ft 487 kts 114°
2026-04-30 07:22 41.52905 -76.60344 34818 ft 487 kts 114°
2026-04-30 07:22 41.50562 -76.51856 34810 ft 487 kts 114°
2026-04-30 07:23 41.48213 -76.43360 34805 ft 488 kts 114°
2026-04-30 07:23 41.45862 -76.34878 34805 ft 488 kts 114°
2026-04-30 07:24 41.43897 -76.27813 34802 ft 489 kts 114°
2026-04-30 07:24 41.41143 -76.17944 34807 ft 489 kts 114°
2026-04-30 07:25 41.38760 -76.09437 34809 ft 490 kts 114°
2026-04-30 07:25 41.36773 -76.02364 34813 ft 490 kts 114°
2026-04-30 07:26 41.34375 -75.93855 34818 ft 491 kts 115°
2026-04-30 07:26 41.31968 -75.85337 34820 ft 491 kts 115°
2026-04-30 07:27 41.29558 -75.76837 34822 ft 491 kts 115°
2026-04-30 07:27 41.27133 -75.68346 34819 ft 490 kts 116°
2026-04-30 07:28 41.24452 -75.60118 34819 ft 487 kts 118°
2026-04-30 07:28 41.21640 -75.51944 34729 ft 488 kts 118°
2026-04-30 07:29 41.20232 -75.47814 34150 ft 493 kts 118°
2026-04-30 07:29 41.18833 -75.43666 33595 ft 490 kts 118°
2026-04-30 07:29 41.17453 -75.39553 33116 ft 486 kts 118°
2026-04-30 07:29 41.16082 -75.35475 32639 ft 481 kts 118°
2026-04-30 07:30 41.13460 -75.27709 31740 ft 474 kts 118°
2026-04-30 07:30 41.12118 -75.23738 31298 ft 470 kts 118°
2026-04-30 07:30 41.10785 -75.19799 30866 ft 466 kts 119°
2026-04-30 07:31 41.09460 -75.15887 30433 ft 463 kts 119°
2026-04-30 07:31 41.08145 -75.12008 30012 ft 460 kts 119°
2026-04-30 07:31 41.06833 -75.08148 29516 ft 457 kts 119°
2026-04-30 07:31 41.05529 -75.04317 28989 ft 455 kts 119°
2026-04-30 07:32 41.04233 -75.00514 28535 ft 451 kts 119°
2026-04-30 07:32 41.02966 -74.96796 28104 ft 446 kts 119°
2026-04-30 07:32 41.01692 -74.93067 27675 ft 442 kts 119°
2026-04-30 07:32 41.00432 -74.89369 27231 ft 439 kts 118°
2026-04-30 07:33 40.99411 -74.85550 26813 ft 440 kts 108°
2026-04-30 07:33 40.98841 -74.81567 26453 ft 438 kts 102°
2026-04-30 07:33 40.98395 -74.77583 26023 ft 436 kts 101°
2026-04-30 07:33 40.97972 -74.73630 25604 ft 433 kts 101°
2026-04-30 07:34 40.97545 -74.69699 25179 ft 430 kts 102°
2026-04-30 07:34 40.97114 -74.65844 24772 ft 428 kts 102°
2026-04-30 07:34 40.96668 -74.61962 24354 ft 425 kts 102°
2026-04-30 07:34 40.96217 -74.58104 23940 ft 423 kts 102°
2026-04-30 07:35 40.95763 -74.54271 23513 ft 421 kts 103°
2026-04-30 07:35 40.95308 -74.50450 23032 ft 419 kts 103°
2026-04-30 07:35 40.94854 -74.46650 22578 ft 416 kts 103°
2026-04-30 07:35 40.94404 -74.42881 22145 ft 413 kts 103°
2026-04-30 07:36 40.93956 -74.39153 21727 ft 410 kts 103°
2026-04-30 07:36 40.93510 -74.35439 21301 ft 407 kts 103°
2026-04-30 07:36 40.93067 -74.31762 20896 ft 404 kts 103°
2026-04-30 07:36 40.92625 -74.28105 20499 ft 401 kts 103°
2026-04-30 07:37 40.92184 -74.24462 20104 ft 398 kts 103°
2026-04-30 07:37 40.91747 -74.20866 19710 ft 396 kts 103°
2026-04-30 07:37 40.91311 -74.17290 19323 ft 393 kts 104°
2026-04-30 07:37 40.90519 -74.13946 18915 ft 380 kts 124°
2026-04-30 07:38 40.88986 -74.11186 18570 ft 365 kts 142°
2026-04-30 07:38 40.87015 -74.09190 18204 ft 351 kts 156°
2026-04-30 07:38 40.84906 -74.07606 17798 ft 347 kts 158°
2026-04-30 07:38 40.82789 -74.06086 17482 ft 342 kts 158°
2026-04-30 07:39 40.80713 -74.04573 17083 ft 340 kts 158°
2026-04-30 07:39 40.78659 -74.03046 16719 ft 338 kts 157°
2026-04-30 07:39 40.76620 -74.01518 16373 ft 336 kts 157°
2026-04-30 07:39 40.74735 -73.99662 15979 ft 346 kts 137°
2026-04-30 07:40 40.73246 -73.97166 15653 ft 346 kts 132°
2026-04-30 07:40 40.71822 -73.94629 15272 ft 345 kts 132°
2026-04-30 07:40 40.70389 -73.92104 14906 ft 343 kts 133°
2026-04-30 07:40 40.68949 -73.89608 14555 ft 341 kts 133°
2026-04-30 07:41 40.67512 -73.87141 14185 ft 340 kts 133°
2026-04-30 07:41 40.66419 -73.85243 13894 ft 340 kts 131°
2026-04-30 07:41 40.65420 -73.83361 13587 ft 342 kts 129°
2026-04-30 07:41 40.64449 -73.81443 13256 ft 343 kts 128°
2026-04-30 07:42 40.63140 -73.78820 12815 ft 342 kts 128°
2026-04-30 07:42 40.62653 -73.77845 12657 ft 342 kts 128°
2026-04-30 07:42 40.62367 -73.77273 12565 ft 341 kts 128°
2026-04-30 07:42 40.61065 -73.74686 12158 ft 340 kts 128°
2026-04-30 07:43 40.59751 -73.72095 11790 ft 337 kts 128°
2026-04-30 07:43 40.58458 -73.69561 11368 ft 337 kts 128°
2026-04-30 07:43 40.57150 -73.67004 10960 ft 335 kts 128°
2026-04-30 07:43 40.56240 -73.65182 10677 ft 336 kts 123°
2026-04-30 07:44 40.55513 -73.62292 10260 ft 343 kts 97°
2026-04-30 07:44 40.55762 -73.59141 9909 ft 344 kts 71°
2026-04-30 07:44 40.56856 -73.56522 9924 ft 328 kts 50°
2026-04-30 07:45 40.57576 -73.55523 9906 ft 321 kts 39°
2026-04-30 07:45 40.59318 -73.53793 9838 ft 308 kts 33°
2026-04-30 07:45 40.60458 -73.52740 9770 ft 302 kts 32°
2026-04-30 07:45 40.61182 -73.52071 9702 ft 299 kts 33°
2026-04-30 07:46 40.62851 -73.50516 9404 ft 298 kts 33°
2026-04-30 07:46 40.64546 -73.48962 9078 ft 296 kts 28°
2026-04-30 07:46 40.66331 -73.47634 8784 ft 294 kts 25°
2026-04-30 07:46 40.68039 -73.46446 8507 ft 292 kts 24°
2026-04-30 07:47 40.69856 -73.45279 8214 ft 290 kts 21°
2026-04-30 07:47 40.71653 -73.44168 8154 ft 277 kts 21°
2026-04-30 07:47 40.73347 -73.43110 8049 ft 262 kts 21°
2026-04-30 07:47 40.75013 -73.42394 7915 ft 242 kts 357°
2026-04-30 07:48 40.76562 -73.42743 7798 ft 216 kts 330°
2026-04-30 07:48 40.77803 -73.43751 7524 ft 204 kts 311°
2026-04-30 07:48 40.78688 -73.45162 7211 ft 197 kts 297°
2026-04-30 07:48 40.79408 -73.46694 6902 ft 196 kts 295°
2026-04-30 07:49 40.80109 -73.48227 6610 ft 194 kts 295°
2026-04-30 07:49 40.80803 -73.49740 6322 ft 193 kts 295°
2026-04-30 07:49 40.81485 -73.51222 6063 ft 188 kts 296°
2026-04-30 07:49 40.82090 -73.52710 5771 ft 181 kts 280°
2026-04-30 07:50 40.82121 -73.54326 5419 ft 176 kts 256°
2026-04-30 07:50 40.81745 -73.55828 5234 ft 166 kts 250°
2026-04-30 07:50 40.81377 -73.57225 5036 ft 159 kts 250°
2026-04-30 07:50 40.81016 -73.58609 4663 ft 163 kts 250°
2026-04-30 07:51 40.80642 -73.60038 4280 ft 166 kts 249°
2026-04-30 07:51 40.80260 -73.61498 3867 ft 172 kts 248°
2026-04-30 07:51 40.79738 -73.62889 3587 ft 166 kts 224°
2026-04-30 07:51 40.79001 -73.63642 3438 ft 163 kts 217°
2026-04-30 07:52 40.78479 -73.64166 3306 ft 164 kts 217°
2026-04-30 07:52 40.77569 -73.65094 3097 ft 167 kts 215°
2026-04-30 07:52 40.76607 -73.65968 2868 ft 168 kts 212°
2026-04-30 07:52 40.75614 -73.66780 2624 ft 167 kts 210°
2026-04-30 07:53 40.74619 -73.67567 2404 ft 168 kts 209°
2026-04-30 07:53 40.73610 -73.68359 2173 ft 170 kts 208°
2026-04-30 07:53 40.72590 -73.69158 1935 ft 169 kts 208°
2026-04-30 07:53 40.71619 -73.69921 1713 ft 158 kts 208°
2026-04-30 07:54 40.70701 -73.70640 1493 ft 151 kts 208°
2026-04-30 07:54 40.69815 -73.71335 1289 ft 144 kts 208°
2026-04-30 07:54 40.68965 -73.72001 1103 ft 145 kts 208°
2026-04-30 07:54 40.68085 -73.72692 886 ft 148 kts 208°
2026-04-30 07:55 40.67193 -73.73393 674 ft 150 kts 208°
2026-04-30 07:55 40.66306 -73.74102 461 ft 149 kts 210°
2026-04-30 07:55 40.65410 -73.74795 259 ft 150 kts 209°
2026-04-30 07:55 40.64520 -73.75491 73 ft 147 kts 210°
2026-04-30 07:56 40.63687 -73.76138 18 ft 126 kts 210°
2026-04-30 07:56 40.63121 -73.76584 16 ft 53 kts 211°
2026-04-30 07:56 40.62964 -73.76816 16 ft 29 kts 244°
2026-04-30 07:56 40.62932 -73.76964 15 ft 13 kts 285°
2026-04-30 07:57 40.62993 -73.77078 15 ft 18 kts 319°
2026-04-30 07:57 40.63062 -73.77263 15 ft 24 kts 300°
2026-04-30 07:57 40.63144 -73.77445 15 ft 23 kts 301°
2026-04-30 07:57 40.63224 -73.77621 18 ft 22 kts 300°
2026-04-30 07:58 40.63300 -73.77793 19 ft 21 kts 300°
2026-04-30 07:58 40.63374 -73.77961 15 ft 21 kts 300°
2026-04-30 07:58 40.63446 -73.78123 15 ft 20 kts 300°
2026-04-30 07:58 40.63520 -73.78285 15 ft 23 kts 301°
2026-04-30 07:59 40.63608 -73.78480 15 ft 27 kts 301°
2026-04-30 07:59 40.63705 -73.78693 15 ft 26 kts 301°
2026-04-30 07:59 40.63796 -73.78893 15 ft 25 kts 300°
2026-04-30 08:00 40.63961 -73.79260 15 ft 22 kts 301°
2026-04-30 08:00 40.64038 -73.79429 15 ft 19 kts 302°
2026-04-30 08:00 40.64150 -73.79506 15 ft 19 kts 358°
2026-04-30 08:00 40.64279 -73.79498 15 ft 18 kts
2026-04-30 08:01 40.64407 -73.79492 15 ft 21 kts 358°
2026-04-30 08:01 40.64575 -73.79519 15 ft 25 kts 342°
2026-04-30 08:01 40.64718 -73.79633 16 ft 23 kts 324°
2026-04-30 08:01 40.64862 -73.79704 15 ft 22 kts
2026-04-30 08:02 40.65055 -73.79615 15 ft 10 kts 111°
2026-04-30 08:02 40.65017 -73.79552 15 ft 8 kts 130°
2026-04-30 08:03 40.64960 -73.79519 15 ft 2 kts 165°
2026-04-30 08:03 40.64958 -73.79518 15 ft 0 kts 165°